Location: Bosdarros
(43.2167°N, 0.3667°W)
Time: 16:40:56
(UTC+00:00)

Cosmos 2322 - Pass Details

Date: 22 April 2021
Orbit: 843 x 852 km, 71.0° (Epoch: 12 May)

Event Time Altitude Azimuth Distance (km) Brightness Sun altitude
Rises 19:15:37 0° 333° (NNW) 3,409 7.7 -4.8°
Reaches altitude 10° 19:18:04 10° 332° (NNW) 2,470 7.0 -5.2°
Maximum altitude 19:23:43 74° 248° (WSW) 879 4.0 -6.1°
Drops below altitude 10° 19:29:20 10° 165° (SSE) 2,454 5.7 -7.1°
Sets 19:31:46 0° 163° (SSE) 3,386 6.4 -7.5°
